This demonstration page uses our WeatherBlox Daily Observations layout. Learn more.

Hourly Observations for August 23, 2017

Temp ( °F °C ) Dew Point ( °F °C ) Humidity (%) Winds ( mph kmh ) Pressure ( in mb ) Visibility ( mi km ) Precip ( " mm )
12:15 am 00:15 Clear 60 15.8 55 12.6 81 81 SSE 5 7 30.15 1021 10 16.09344 0 0
12:35 am 00:35 Clear 59 15 54 12.2 83 83 SSE 5 7 30.15 1021 10 16.09344 0 0
12:55 am 00:55 Clear 59 15 54 12.2 83 83 SSE 5 7 30.15 1021 10 16.09344 0 0
1:15 am 01:15 Clear 58 14.7 53 11.6 82 82 SSE 6 9 30.18 1022 10 16.09344 0 0
1:35 am 01:35 Clear 59 15 53 11.8 81 81 SSE 8 13 30.15 1021 10 16.09344 0 0
1:55 am 01:55 Clear 58 14.2 53 11.4 83 83 SSE 6 9 30.18 1022 10 16.09344 0 0
2:15 am 02:15 Clear 57 14.1 53 11.4 84 84 SSE 7 11 30.15 1021 10 16.09344 0 0
2:35 am 02:35 Clear 58 14.5 53 11.6 83 83 SSE 8 13 30.18 1022 10 16.09344 0 0
2:55 am 02:55 Clear 58 14.6 53 11.6 82 82 S 7 11 30.15 1021 10 16.09344 0 0
3:15 am 03:15 Clear 59 14.9 53 11.6 81 81 S 7 11 30.12 1020 10 16.09344 0 0
3:35 am 03:35 Partly Cloudy 58 14.6 53 11.5 82 82 SSE 5 7 30.15 1021 10 16.09344 0 0
3:55 am 03:55 Partly Cloudy 59 15 52 11.2 78 78 SSE 5 7 30.12 1020 10 16.09344 0 0
4:15 am 04:15 Partly Cloudy 58 14.3 51 10.8 80 80 SSE 5 7 30.15 1021 10 16.09344 0 0
4:35 am 04:35 Mostly Cloudy 58 14.5 52 11 80 80 SSE 3 6 30.15 1021 10 16.09344 0 0
4:55 am 04:55 Mostly Cloudy 57 14.1 52 11.1 82 82 SSE 3 6 30.15 1021 10 16.09344 0 0
5:15 am 05:15 Partly Cloudy 57 14 51 10.7 81 81 S 3 6 30.15 1021 10 16.09344 0 0
5:35 am 05:35 Clear 57 14 51 10.6 80 80 S 3 6 30.15 1021 10 16.09344 0 0
5:55 am 05:55 Partly Cloudy 57 14 51 10.5 80 80 S 5 7 30.15 1021 10 16.09344 0 0
6:15 am 06:15 Partly Cloudy 57 14 51 10.6 80 80 S 5 7 30.15 1021 10 16.09344 0 0
6:35 am 06:35 Clear 57 13.9 51 10.6 81 81 S 6 9 30.15 1021 10 16.09344 0 0
6:55 am 06:55 Clear 57 13.7 51 10.7 82 82 S 6 9 30.15 1021 10 16.09344 0 0
7:15 am 07:15 Sunny 57 13.7 51 10.7 82 82 S 6 9 30.15 1021 10 16.09344 0 0
7:35 am 07:35 Sunny 57 14.1 51 10.7 80 80 S 5 7 30.15 1021 10 16.09344 0 0
7:55 am 07:55 Sunny 58 14.7 52 11.1 79 79 S 7 11 30.12 1020 10 16.09344 0 0
8:15 am 08:15 Sunny 60 15.8 52 11.3 75 75 SSW 8 13 30.12 1020 10 16.09344 0 0
8:35 am 08:35 Sunny 62 16.6 53 11.6 73 73 S 9 15 30.12 1020 10 16.09344 0 0
8:55 am 08:55 Sunny 64 17.5 53 11.9 70 70 SSW 8 13 30.12 1020 10 16.09344 0 0
9:15 am 09:15 Sunny 65 18.1 54 12 68 68 SSW 12 19 30.09 1019 10 16.09344 0 0
9:35 am 09:35 Sunny 66 19 54 12 64 64 S 13 20 30.09 1019 10 16.09344 0 0
9:55 am 09:55 Sunny 67 19.5 55 12.5 64 64 SSW 9 15 30.09 1019 10 16.09344 0 0
10:15 am 10:15 Sunny 69 20.5 54 12.4 60 60 SSW 10 17 30.09 1019 10 16.09344 0 0
10:35 am 10:35 Sunny 69 20.6 52 10.9 54 54 SSW 15 24 30.09 1019 10 16.09344 0 0
10:55 am 10:55 Sunny 71 21.5 53 11.7 54 54 S 14 22 30.06 1018 10 16.09344 0 0
11:15 am 11:15 Sunny 72 22.2 53 11.8 52 52 SSW 12 19 30.06 1018 10 16.09344 0 0
11:35 am 11:35 Sunny 73 22.5 53 11.8 51 51 S 13 20 30.06 1018 10 16.09344 0 0
11:55 am 11:55 Sunny 74 23.3 53 11.9 49 49 SSW 15 24 30.06 1018 10 16.09344 0 0
12:15 pm 12:15 Sunny 75 24 54 12 47 47 SSW 12 19 30.06 1018 10 16.09344 0 0
12:35 pm 12:35 Sunny 76 24.5 54 12.1 46 46 S 13 20 30.03 1017 10 16.09344 0 0
12:55 pm 12:55 Sunny 77 24.9 51 10.6 41 41 S 15 24 30 1016 10 16.09344 0 0
1:15 pm 13:15 Sunny 77 25.2 52 10.9 41 41 SSW 15 24 30 1016 10 16.09344 0 0
1:35 pm 13:35 Sunny 78 25.6 51 10.8 40 40 SSW 15 24 29.97 1015 10 16.09344 0 0
1:55 pm 13:55 Sunny 79 26 50 10.2 37 37 S 16 26 29.97 1015 10 16.09344 0 0
2:15 pm 14:15 Sunny 80 26.4 52 10.9 38 38 SSW 15 24 29.97 1015 10 16.09344 0 0
2:35 pm 14:35 Sunny 80 26.7 51 10.8 37 37 S 14 22 29.97 1015 10 16.09344 0 0
2:55 pm 14:55 Sunny 81 27 51 10.7 36 36 S 17 28 29.94 1014 10 16.09344 0 0
3:15 pm 15:15 Sunny 81 27.1 52 10.9 36 36 S 17 28 29.94 1014 10 16.09344 0 0
3:35 pm 15:35 Sunny 81 27.4 51 10.8 35 35 S 15 24 29.88 1012 10 16.09344 0 0
3:55 pm 15:55 Sunny 82 27.7 53 11.5 37 37 S 15 24 29.88 1012 10 16.09344 0 0
4:15 pm 16:15 Sunny 82 27.6 52 11.1 36 36 S 12 19 29.88 1012 10 16.09344 0 0
4:35 pm 16:35 Sunny 82 27.8 52 11.1 35 35 S 14 22 29.88 1012 10 16.09344 0 0
4:55 pm 16:55 Sunny 82 27.7 51 10.4 34 34 S 13 20 29.88 1012 10 16.09344 0 0
5:15 pm 17:15 Sunny 82 27.7 51 10.6 34 34 S 14 22 29.88 1012 10 16.09344 0 0
5:35 pm 17:35 Sunny 82 27.7 53 11.6 37 37 S 10 17 29.88 1012 10 16.09344 0 0
5:55 pm 17:55 Sunny 81 27.3 51 10.7 35 35 S 12 19 29.88 1012 10 16.09344 0 0
6:15 pm 18:15 Sunny 81 27.2 51 10.6 35 35 S 14 22 29.91 1013 10 16.09344 0 0
6:35 pm 18:35 Sunny 81 27 53 11.6 38 38 S 12 19 29.91 1013 10 16.09344 0 0
6:55 pm 18:55 Sunny 80 26.4 53 11.8 40 40 SSE 10 17 29.88 1012 10 16.09344 0 0
7:15 pm 19:15 Sunny 77 25.2 54 12.4 45 45 SSE 8 13 29.88 1012 10 16.09344 0 0
7:35 pm 19:35 Sunny 76 24.6 55 12.8 48 48 SSE 9 15 29.88 1012 10 16.09344 0 0
7:55 pm 19:55 Sunny 74 23.5 55 12.7 51 51 SSE 7 11 29.88 1012 10 16.09344 0 0
8:15 pm 20:15 Sunny 72 22.4 55 12.7 54 54 SSE 7 11 29.91 1013 10 16.09344 0 0
8:35 pm 20:35 Clear 71 21.6 55 12.5 56 56 SE 7 11 29.91 1013 10 16.09344 0 0
8:55 pm 20:55 Clear 71 21.6 54 12.1 55 55 SE 7 11 29.91 1013 10 16.09344 0 0
9:15 pm 21:15 Clear 70 21.2 54 12.2 57 57 SE 7 11 29.94 1014 10 16.09344 0 0
9:35 pm 21:35 Clear 69 20.5 55 12.6 61 61 SE 7 11 29.94 1014 10 16.09344 0 0
9:55 pm 21:55 Clear 69 20.5 55 12.8 61 61 SE 7 11 29.94 1014 10 16.09344 0 0
10:15 pm 22:15 Clear 67 19.3 55 13 67 67 SSE 8 13 29.97 1015 10 16.09344 0 0
10:35 pm 22:35 Clear 65 18.5 55 12.7 69 69 SSE 6 9 29.97 1015 10 16.09344 0 0
10:55 pm 22:55 Clear 64 17.5 55 12.6 73 73 SSE 6 9 29.97 1015 10 16.09344 0 0
11:15 pm 23:15 Clear 64 18 54 12.2 69 69 SSE 7 11 29.97 1015 10 16.09344 0 0
11:35 pm 23:35 Clear 65 18.3 54 12 67 67 SSE 7 11 29.97 1015 10 16.09344 0 0
11:55 pm 23:55 Clear 64 17.5 54 12 70 70 SE 7 11 29.97 1015 10 16.09344 0 0

Powered by AerisWeather